CW7164 Weather Reports


Display with metric or nautical units.
time (UTC)temp
F
wind
direction
speed
MPH
gust
MPH
rain 1hr
in
rain 24hr
in
rain mn
in
humidity
%
barometer
mb
20260509073212 52 220 0.0 1.0 0.00 0.00 0.00 63 1004.2
20260509072513 52 220 0.0 1.0 0.00 0.00 0.00 63 1004.1
20260509071412 52 220 0.0 1.0 0.00 0.00 0.00 64 1004.5
20260509070512 52 221 0.0 1.0 0.00 0.00 0.00 65 1004.5
20260509065612 52 222 0.0 1.0 0.00 0.00 0.00 65 1004.7
20260509064712 53 222 0.0 1.0 0.00 0.00 0.00 66 1004.7
20260509063812 53 224 0.0 1.0 0.00 0.00 0.00 66 1004.7
20260509063113 53 206 0.0 1.0 0.00 0.00 0.00 67 1004.8
20260509062213 53 205 0.0 1.0 0.00 0.00 0.00 67 1005.0
20260509061112 54 205 0.0 1.0 0.00 0.00 0.00 67 1005.0
20260509060413 54 205 1.0 1.0 0.00 0.00 0.00 68 1005.0
20260509060212 54 205 1.0 1.0 0.00 0.00 0.00 68 1005.1
20260509055512 54 198 0.0 1.0 0.00 0.00 0.00 68 1005.2
20260509055312 54 200 0.0 1.0 0.00 0.00 0.00 68 1005.2
20260509054612 54 198 0.0 1.0 0.00 0.00 0.00 68 1005.2
20260509054412 54 197 0.0 1.0 0.00 0.00 0.00 68 1005.2
20260509053712 54 132 0.0 1.0 0.00 0.00 0.00 69 1005.4
20260509053512 55 140 0.0 1.0 0.00 0.00 0.00 69 1005.4
20260509052813 55 136 0.0 2.0 0.00 0.00 0.00 69 1005.4
20260509052612 55 161 1.0 2.0 0.00 0.00 0.00 69 1005.3
20260509051712 55 203 1.0 2.0 0.00 0.00 0.00 70 1005.2
20260509050812 55 200 0.0 2.0 0.00 0.00 0.00 70 1005.3
20260509050112 55 200 1.0 1.0 0.00 0.00 0.00 71 1005.3
20260509045912 55 200 1.0 2.0 0.00 0.00 0.00 71 1005.2
20260509045213 55 206 0.0 1.0 0.00 0.00 0.00 71 1005.3
20260509044313 56 171 1.0 2.0 0.00 0.00 0.00 72 1005.2
20260509044112 56 172 0.0 1.0 0.00 0.00 0.00 72 1005.2
20260509043413 56 138 0.0 1.0 0.00 0.00 0.00 72 1005.3
20260509043212 56 133 1.0 2.0 0.00 0.00 0.00 72 1005.2
20260509042312 56 161 1.0 1.0 0.00 0.00 0.00 72 1005.3
20260509041612 56 130 0.0 1.0 0.00 0.00 0.00 72 1005.3
20260509041412 56 130 0.0 1.0 0.00 0.00 0.00 72 1005.4
20260509040712 56 147 0.0 2.0 0.00 0.00 0.00 72 1005.4
20260509040512 56 145 0.0 2.0 0.00 0.00 0.00 72 1005.4
20260509035812 57 173 1.0 2.0 0.00 0.00 0.00 72 1005.4
20260509035612 57 162 1.0 2.0 0.00 0.00 0.00 72 1005.5
20260509034912 57 143 1.0 1.0 0.00 0.00 0.00 71 1005.5
20260509034712 57 143 1.0 1.0 0.00 0.00 0.00 71 1005.5
20260509034013 57 137 1.0 1.0 0.00 0.00 0.00 71 1005.5
20260509033812 57 136 1.0 2.0 0.00 0.00 0.00 71 1005.5
20260509033112 57 127 1.0 1.0 0.00 0.00 0.00 71 1005.5
20260509032212 58 141 1.0 1.0 0.00 0.00 0.00 70 1005.5
20260509031312 58 145 1.0 2.0 0.00 0.00 0.00 70 1005.5
20260509031112 58 163 1.0 2.0 0.00 0.00 0.00 70 1005.6
20260509030212 58 175 0.0 2.0 0.00 0.00 0.00 70 1005.5
20260509025512 58 174 1.0 2.0 0.00 0.00 0.00 69 1005.5
20260509025312 58 175 0.0 1.0 0.00 0.00 0.00 69 1005.6
20260509024412 59 187 0.0 1.0 0.00 0.00 0.00 68 1005.6
20260509023712 59 202 0.0 1.0 0.00 0.00 0.00 67 1005.5
20260509023511 59 209 0.0 1.0 0.00 0.00 0.00 67 1005.5
20260509022812 59 203 0.0 1.0 0.00 0.00 0.00 64 1005.4
20260509022612 59 207 0.0 1.0 0.00 0.00 0.00 63 1005.5
20260509021912 59 184 0.0 1.0 0.00 0.00 0.00 61 1005.5
20260509021712 59 0 0.0 0.0 0.00 0.00 0.00 61 1005.6
20260509021012 60 0 0.0 0.0 0.00 0.00 0.00 59 1005.5
20260509020812 60 0 0.0 0.0 0.00 0.00 0.00 59 1005.5
20260509020112 60 0 0.0 0.0 0.00 0.00 0.00 58 1005.3
20260509015912 60 0 0.0 0.0 0.00 0.00 0.00 58 1005.3
20260509015212 61 0 0.0 0.0 0.00 0.00 0.00 57 1005.3
20260509015011 61 0 0.0 0.0 0.00 0.00 0.00 57 1005.2
20260509014112 61 0 0.0 0.0 0.00 0.00 0.00 56 1005.2
20260509013412 61 0 0.0 0.0 0.00 0.00 0.00 55 1005.2
20260509013212 62 0 0.0 0.0 0.00 0.00 0.00 55 1005.3
20260509012512 62 0 0.0 0.0 0.00 0.00 0.00 54 1005.3
20260509011612 62 0 0.0 0.0 0.00 0.00 0.00 54 1005.3
20260509011412 62 0 0.0 0.0 0.00 0.00 0.00 53 1005.2
20260509010712 63 184 0.0 1.0 0.00 0.00 0.00 53 1005.1
20260509005812 63 184 0.0 1.0 0.00 0.00 0.00 52 1005.1
20260509005612 63 184 0.0 1.0 0.00 0.00 0.00 51 1005.1
20260509004912 64 184 0.0 1.0 0.00 0.00 0.00 51 1005.2
20260509004012 64 184 0.0 1.0 0.00 0.00 0.00 50 1005.3
20260509003812 64 184 0.0 1.0 0.00 0.00 0.00 49 1005.2
20260509003112 64 184 0.0 1.0 0.00 0.00 0.00 50 1005.2
20260509002911 64 191 0.0 1.0 0.00 0.00 0.00 49 1005.3
20260509002011 64 191 0.0 2.0 0.00 0.00 0.00 49 1005.3
20260509001312 64 0 0.0 0.0 0.00 0.00 0.00 49 1005.3
20260509001112 64 0 0.0 0.0 0.00 0.00 0.00 49 1005.3
20260509000412 64 161 0.0 1.0 0.00 0.00 0.00 49 1005.3
20260509000212 64 161 0.0 1.0 0.00 0.00 0.00 50 1005.3
20260508235512 65 161 0.0 1.0 0.00 0.00 0.00 50 1005.3
20260508235312 65 161 0.0 1.0 0.00 0.00 0.00 49 1005.3
20260508234612 65 161 0.0 1.0 0.00 0.00 0.00 48 1005.4
20260508233712 65 210 1.0 2.0 0.00 0.00 0.00 47 1005.4
20260508233511 65 213 1.0 2.0 0.00 0.00 0.00 47 1005.4
20260508232812 66 197 0.0 1.0 0.00 0.00 0.00 47 1005.4
20260508232612 66 196 1.0 1.0 0.00 0.00 0.00 47 1005.4
20260508231912 66 189 1.0 1.0 0.00 0.00 0.00 45 1005.4
20260508231712 66 197 1.0 2.0 0.00 0.00 0.00 46 1005.5
20260508231012 66 135 1.0 2.0 0.00 0.00 0.00 46 1005.4
20260508230812 66 142 1.0 2.0 0.00 0.00 0.00 47 1005.4
20260508230112 67 125 1.0 2.0 0.00 0.00 0.00 47 1005.4
20260508225911 67 128 1.0 3.0 0.00 0.00 0.00 46 1005.5
20260508225212 67 118 1.0 3.0 0.00 0.00 0.00 46 1005.4
20260508224312 67 139 1.0 2.0 0.00 0.00 0.00 47 1005.5
20260508224111 67 138 1.0 2.0 0.00 0.00 0.00 46 1005.5
20260508223412 67 110 1.0 3.0 0.00 0.00 0.00 48 1005.7
20260508223211 67 115 1.0 2.0 0.00 0.00 0.00 47 1005.7
20260508222512 67 119 1.0 2.0 0.00 0.00 0.00 48 1005.8
20260508222312 67 150 1.0 2.0 0.00 0.00 0.00 48 1005.7
20260508221612 67 156 1.0 2.0 0.00 0.00 0.00 48 1005.6
20260508221411 67 153 1.0 2.0 0.00 0.00 0.00 48 1005.6
20260508220712 67 130 1.0 3.0 0.00 0.00 0.00 48 1005.7
20260508220511 67 133 1.0 3.0 0.00 0.00 0.00 47 1005.7
20260508215812 66 141 1.0 3.0 0.00 0.00 0.00 46 1005.8
20260508214912 67 185 1.0 3.0 0.00 0.00 0.00 45 1005.8
20260508214712 67 196 1.0 4.0 0.00 0.00 0.00 45 1005.9
20260508214012 68 167 1.0 3.0 0.00 0.00 0.00 47 1005.8
20260508213812 68 139 1.0 2.0 0.00 0.00 0.00 46 1005.9
20260508213112 68 133 1.0 3.0 0.00 0.00 0.00 45 1005.9
20260508212911 68 139 1.0 3.0 0.00 0.00 0.00 45 1005.9
20260508212212 68 176 1.0 1.0 0.00 0.00 0.00 44 1006.0
20260508212011 68 186 1.0 2.0 0.00 0.00 0.00 45 1006.0
20260508211312 68 192 1.0 1.0 0.00 0.00 0.00 44 1005.9
20260508210412 68 216 1.0 2.0 0.00 0.00 0.00 43 1006.0
20260508210211 68 195 1.0 3.0 0.00 0.00 0.00 42 1006.0
20260508205512 68 273 1.0 2.0 0.00 0.00 0.00 40 1006.0
20260508205311 68 193 1.0 3.0 0.00 0.00 0.00 42 1006.0
20260508204612 70 183 1.0 2.0 0.00 0.00 0.00 43 1006.0
20260508203712 70 176 1.0 2.0 0.00 0.00 0.00 41 1006.1
20260508203511 70 196 1.0 1.0 0.00 0.00 0.00 41 1006.1
20260508202812 70 231 1.0 1.0 0.00 0.00 0.00 41 1006.3
20260508202612 70 220 1.0 2.0 0.00 0.00 0.00 44 1006.3
20260508201912 69 133 1.0 3.0 0.00 0.00 0.00 43 1006.4
20260508201012 68 8 0.0 1.0 0.00 0.00 0.00 41 1006.5
20260508200811 68 7 1.0 2.0 0.00 0.00 0.00 40 1006.5
20260508200112 68 209 1.0 2.0 0.00 0.00 0.00 40 1006.7
20260508195911 68 203 1.0 4.0 0.00 0.00 0.00 40 1006.8
20260508195212 69 154 1.0 2.0 0.00 0.00 0.00 40 1007.1
20260508195011 69 162 1.0 3.0 0.00 0.00 0.00 43 1007.0
20260508194312 69 125 1.0 2.0 0.00 0.00 0.00 44 1007.0
20260508194111 68 89 1.0 2.0 0.00 0.00 0.00 45 1007.0
20260508193412 67 49 1.0 2.0 0.00 0.00 0.00 46 1007.1
20260508192512 67 255 1.0 1.0 0.00 0.00 0.00 42 1007.3
20260508191612 68 226 1.0 2.0 0.00 0.00 0.00 42 1007.3
20260508191411 68 218 1.0 2.0 0.00 0.00 0.00 43 1007.4
20260508190712 68 148 1.0 2.0 0.00 0.00 0.00 46 1007.4
20260508190511 68 124 1.0 2.0 0.00 0.00 0.00 47 1007.4
20260508185812 67 143 1.0 3.0 0.00 0.00 0.00 47 1007.5
20260508184913 66 184 1.0 1.0 0.00 0.00 0.00 55 1007.7
20260508184711 66 191 0.0 1.0 0.00 0.00 0.00 52 1007.8
20260508184012 65 165 1.0 1.0 0.00 0.00 0.00 51 1007.8
20260508183811 65 88 1.0 3.0 0.00 0.01 0.00 49 1007.8
20260508183112 65 92 2.0 6.0 0.00 0.01 0.00 49 1007.9
20260508182911 65 93 2.0 3.0 0.00 0.01 0.00 49 1007.9
20260508182212 65 149 1.0 2.0 0.00 0.01 0.00 52 1008.0
20260508182011 65 174 1.0 3.0 0.00 0.01 0.00 54 1008.0
20260508181312 65 132 1.0 3.0 0.00 0.01 0.00 53 1008.1
20260508181111 65 118 1.0 3.0 0.00 0.01 0.00 53 1008.1
20260508180412 66 107 2.0 3.0 0.00 0.01 0.00 52 1008.1
20260508180211 66 114 1.0 2.0 0.00 0.01 0.00 53 1008.2
20260508174611 64 107 1.0 3.0 0.00 0.01 0.00 57 1008.5
20260508174411 64 108 1.0 3.0 0.00 0.01 0.00 58 1008.6
20260508173712 64 152 1.0 2.0 0.00 0.01 0.00 56 1008.6
20260508173511 64 158 1.0 2.0 0.00 0.01 0.00 57 1008.6
20260508172811 64 112 1.0 2.0 0.00 0.01 0.00 59 1008.7
20260508172611 64 144 1.0 2.0 0.00 0.01 0.00 58 1008.7
20260508171912 63 153 1.0 2.0 0.00 0.01 0.00 60 1008.9
20260508171711 63 151 1.0 2.0 0.00 0.01 0.00 60 1008.9
20260508171011 63 184 1.0 1.0 0.00 0.01 0.00 60 1009.0
20260508170811 63 181 1.0 2.0 0.00 0.01 0.00 60 1009.0
20260508170111 63 122 1.0 2.0 0.00 0.01 0.00 59 1009.1
20260508165911 63 149 1.0 2.0 0.00 0.01 0.00 58 1009.1
20260508165212 64 206 1.0 2.0 0.00 0.01 0.00 61 1009.3
20260508165011 63 137 1.0 2.0 0.00 0.01 0.00 62 1009.4
20260508164311 63 122 1.0 3.0 0.00 0.01 0.00 62 1009.4
20260508164111 63 126 1.0 2.0 0.00 0.01 0.00 61 1009.5
20260508163211 62 298 0.0 1.0 0.00 0.01 0.00 62 1009.5
20260508162512 62 127 1.0 2.0 0.00 0.01 0.00 62 1009.7
20260508162311 61 131 1.0 2.0 0.00 0.01 0.00 62 1009.8
20260508161611 61 107 1.0 1.0 0.00 0.01 0.00 64 1009.9
20260508161411 61 111 1.0 1.0 0.00 0.01 0.00 63 1009.8
20260508160712 61 113 1.0 2.0 0.00 0.01 0.00 63 1009.9
20260508160511 61 250 1.0 2.0 0.00 0.01 0.00 63 1009.8
20260508155811 60 273 1.0 2.0 0.00 0.01 0.00 64 1009.8
20260508155611 60 269 1.0 2.0 0.00 0.01 0.00 64 1009.8
20260508154911 60 27 1.0 2.0 0.00 0.01 0.00 65 1009.9
20260508154711 60 12 1.0 2.0 0.00 0.01 0.00 65 1010.0
20260508154011 60 287 1.0 2.0 0.00 0.01 0.00 65 1010.1
20260508153111 60 59 1.0 2.0 0.00 0.01 0.00 64 1010.2
20260508152911 60 74 1.0 2.0 0.00 0.01 0.00 64 1010.2
20260508152212 60 49 1.0 2.0 0.00 0.01 0.00 65 1010.2
20260508151311 60 33 0.0 1.0 0.00 0.01 0.00 65 1010.3
20260508151111 60 93 1.0 3.0 0.00 0.01 0.00 65 1010.4
20260508150411 59 83 1.0 1.0 0.00 0.01 0.00 66 1010.5
20260508150211 59 87 1.0 3.0 0.00 0.01 0.00 66 1010.4
20260508145511 58 167 1.0 2.0 0.00 0.01 0.00 67 1010.4
20260508145311 58 183 1.0 2.0 0.00 0.01 0.00 67 1010.4
20260508144611 58 88 1.0 2.0 0.00 0.01 0.00 68 1010.4
20260508144411 58 73 1.0 2.0 0.00 0.01 0.00 69 1010.5
20260508143711 56 72 0.0 1.0 0.00 0.01 0.00 70 1010.6
20260508143511 56 85 0.0 1.0 0.00 0.01 0.00 70 1010.6
20260508142811 55 163 0.0 1.0 0.00 0.01 0.00 71 1010.6
20260508141911 54 128 0.0 2.0 0.00 0.01 0.00 71 1010.7
20260508141711 54 109 0.0 2.0 0.00 0.01 0.00 71 1010.7
20260508141011 53 102 1.0 1.0 0.00 0.01 0.00 71 1010.6
20260508140111 52 181 0.0 1.0 0.00 0.01 0.00 70 1010.7
20260508135911 52 178 0.0 1.0 0.00 0.01 0.00 70 1010.8
20260508135211 52 173 0.0 1.0 0.00 0.01 0.00 69 1010.7
20260508135011 51 173 0.0 1.0 0.00 0.01 0.00 68 1010.7
20260508134311 50 173 0.0 1.0 0.00 0.01 0.00 66 1010.7
20260508134110 50 173 0.0 1.0 0.00 0.01 0.00 65 1010.7
20260508133420 50 173 1.0 1.0 0.00 0.01 0.00 62 1010.7
20260508133211 50 174 1.0 2.0 0.00 0.01 0.00 62 1010.6
20260508132512 49 193 1.0 2.0 0.00 0.01 0.00 60 1010.6
20260508132311 49 190 1.0 2.0 0.00 0.01 0.00 59 1010.6
20260508131620 49 204 0.0 2.0 0.00 0.01 0.00 57 1010.7
20260508131411 49 208 0.0 1.0 0.00 0.01 0.00 57 1010.6
20260508130510 48 215 0.0 1.0 0.00 0.01 0.00 56 1010.6
20260508125610 48 215 0.0 1.0 0.00 0.01 0.00 55 1010.6
20260508124912 47 0 0.0 0.0 0.00 0.01 0.00 55 1010.5
20260508124012 46 0 0.0 0.0 0.00 0.01 0.00 56 1010.5
20260508123810 46 0 0.0 0.0 0.00 0.02 0.00 56 1010.4
20260508123112 46 0 0.0 0.0 0.00 0.02 0.00 56 1010.7
20260508122910 46 0 0.0 0.0 0.00 0.02 0.00 56 1010.7
20260508122212 46 186 0.0 1.0 0.00 0.02 0.00 57 1010.7
20260508122010 46 184 0.0 1.0 0.00 0.02 0.00 57 1010.7
20260508121110 45 193 0.0 1.0 0.00 0.02 0.00 57 1010.5
20260508120412 45 200 0.0 1.0 0.00 0.02 0.00 58 1010.5
20260508120210 45 0 0.0 0.0 0.00 0.02 0.00 58 1010.5
20260508115512 45 0 0.0 0.0 0.00 0.02 0.00 58 1010.6
20260508115310 45 0 0.0 0.0 0.00 0.02 0.00 59 1010.6
20260508114612 45 0 0.0 0.0 0.00 0.02 0.00 59 1010.6
20260508114410 44 0 0.0 0.0 0.00 0.02 0.00 59 1010.5
20260508113713 44 0 0.0 0.0 0.00 0.02 0.00 59 1010.5
20260508113510 44 0 0.0 0.0 0.00 0.02 0.00 59 1010.4
20260508112812 44 0 0.0 0.0 0.00 0.02 0.00 60 1010.4
20260508111912 44 0 0.0 0.0 0.00 0.02 0.00 60 1010.2
20260508111711 44 0 0.0 0.0 0.00 0.02 0.00 61 1010.3
20260508111012 44 0 0.0 0.0 0.00 0.02 0.00 61 1010.3
20260508110810 44 198 0.0 1.0 0.00 0.02 0.00 61 1010.3
20260508104938 43 0 0.0 0.0 0.00 0.02 0.00 63 1010.3
20260508104037 42 0 0.0 0.0 0.00 0.02 0.00 64 1010.4
20260508103138 42 0 0.0 0.0 0.00 0.02 0.00 65 1010.5
20260508100437 42 0 0.0 0.0 0.00 0.02 0.00 67 1010.2
20260508095538 41 0 0.0 0.0 0.00 0.02 0.00 68 1010.3
20260508094637 42 0 0.0 0.0 0.00 0.02 0.00 68 1010.5
20260508093737 42 0 0.0 0.0 0.00 0.02 0.00 69 1010.6
20260508092837 42 0 0.0 0.0 0.00 0.02 0.00 69 1010.7
20260508091937 42 0 0.0 0.0 0.00 0.02 0.00 68 1010.6
20260508091037 43 0 0.0 0.0 0.00 0.02 0.00 68 1010.5
20260508090137 43 0 0.0 0.0 0.00 0.02 0.00 69 1010.5
20260508084337 43 198 0.0 1.0 0.00 0.02 0.00 68 1010.7
20260508083437 43 0 0.0 0.0 0.00 0.02 0.00 68 1010.7
20260508082537 43 0 0.0 0.0 0.00 0.02 0.00 68 1010.7
20260508081637 43 0 0.0 0.0 0.00 0.02 0.00 68 1010.8
20260508080737 44 0 0.0 0.0 0.00 0.02 0.00 68 1010.8
20260508075837 44 0 0.0 0.0 0.00 0.02 0.00 68 1010.8
20260508074937 44 0 0.0 0.0 0.00 0.02 0.00 69 1010.9
20260508074039 44 0 0.0 0.0 0.00 0.02 0.00 70 1011.0